,,,PA_Meas_PMT16A,,PR_Meas_QMR101_102,,RH_Meas_QMH101,,SR_Meas_QMS101,,TA_Meas_QMH101,,GenWind,,GenWind,
date,time,status,PA,status,PR,status,RH,status,SR,status,TA,status,DirAvg,status,SpdAvg,
2012-04-20, 00:00:05,VALID,1009.24,VALID,0,VALID,104,VALID,0,VALID,23.1874,VALID,187,VALID,0.582812,
2012-04-20, 00:01:05,VALID,1009.23,VALID,0,VALID,104,VALID,0,VALID,23.1874,VALID,187,VALID,0.41875,
2012-04-20, 00:02:05,VALID,1009.2,VALID,0,VALID,104,VALID,0,VALID,23.1874,VALID,187,VALID,0.358203,
2012-04-20, 00:03:05,VALID,1009.22,VALID,0,VALID,104,VALID,0,VALID,23.1874,VALID,187,VALID,0.211328,
2012-04-20, 00:04:05,VALID,1009.22,VALID,0,VALID,104,VALID,0,VALID,23.2069,VALID,187,VALID,0.0804688,
2012-04-20, 00:05:05,VALID,1009.2,VALID,0,VALID,104,VALID,0,VALID,23.2069,VALID,187,VALID,0,
2012-04-20, 00:06:05,VALID,1009.19,VALID,0,VALID,104,VALID,0,VALID,23.2069,VALID,187,VALID,0,
2012-04-20, 00:07:05,VALID,1009.19,VALID,0,VALID,104,VALID,0,VALID,23.2069,VALID,187,VALID,0,
2012-04-20, 00:08:05,VALID,1009.18,VALID,0,VALID,104,VALID,0,VALID,23.2069,VALID,187,VALID,0.0394531,
2012-04-20, 00:09:05,VALID,1009.16,VALID,0,VALID,104,VALID,0,VALID,23.2069,VALID,187,VALID,0.0171875,
2012-04-20, 00:10:05,VALID,1009.15,VALID,0,VALID,104,VALID,0,VALID,23.2069,VALID,187,VALID,0.171875,
2012-04-20, 00:11:05,VALID,1009.13,VALID,0,VALID,104,VALID,0,VALID,23.2264,VALID,187,VALID,0.00117188,
2012-04-20, 00:12:05,VALID,1009.13,VALID,0,VALID,104,VALID,0,VALID,23.1857,VALID,187,VALID,0,
2012-04-20, 00:13:05,VALID,1009.1,VALID,0,VALID,104,VALID,0,VALID,23.2264,VALID,187,VALID,0,
2012-04-20, 00:14:05,VALID,1009.08,VALID,0,VALID,104,VALID,0,VALID,23.2264,VALID,187,VALID,0.0367187,
2012-04-20, 00:15:05,VALID,1009.08,VALID,0,VALID,104,VALID,0,VALID,23.2264,VALID,187,VALID,0,
2012-04-20, 00:16:05,VALID,1009.06,VALID,0,VALID,104,VALID,0,VALID,23.2069,VALID,187,VALID,0,
2012-04-20, 00:17:05,VALID,1009.07,VALID,0,VALID,104,VALID,0,VALID,23.2069,VALID,187,VALID,0,
2012-04-20, 00:18:05,VALID,1009.05,VALID,0,VALID,104,VALID,0,VALID,23.2069,VALID,187,VALID,0,
2012-04-20, 00:19:05,VALID,1009.03,VALID,0,VALID,104,VALID,0,VALID,23.2069,VALID,187,VALID,0,
2012-04-20, 00:20:05,VALID,1009.02,VALID,0,VALID,104,VALID,0,VALID,23.2069,VALID,187,VALID,0,
2012-04-20, 00:21:05,VALID,1009,VALID,0,VALID,104,VALID,0,VALID,23.2069,VALID,187,VALID,0,
2012-04-20, 00:22:05,VALID,1008.99,VALID,0,VALID,104,VALID,0.112112,VALID,23.2069,VALID,187,VALID,0,
2012-04-20, 00:23:05,VALID,1008.99,VALID,0,VALID,104,VALID,0,VALID,23.2069,VALID,187,VALID,0,
2012-04-20, 00:24:05,VALID,1008.97,VALID,0,VALID,104,VALID,0,VALID,23.2264,VALID,187,VALID,0,
2012-04-20, 00:25:05,VALID,1008.99,VALID,0,VALID,104,VALID,0,VALID,23.2069,VALID,187,VALID,0.389062,
2012-04-20, 00:26:05,VALID,1009,VALID,0,VALID,104,VALID,0,VALID,23.2069,VALID,187,VALID,0.291016,
2012-04-20, 00:27:05,VALID,1009,VALID,0,VALID,104,VALID,0,VALID,23.2069,VALID,187,VALID,0.0777344,
2012-04-20, 00:28:05,VALID,1009,VALID,0,VALID,104,VALID,0,VALID,23.1874,VALID,187,VALID,0,
2012-04-20, 00:29:05,VALID,1009,VALID,0,VALID,104,VALID,0,VALID,23.2087,VALID,187,VALID,0,
2012-04-20, 00:30:05,VALID,1008.98,VALID,0,VALID,104,VALID,0,VALID,23.1874,VALID,187,VALID,0,
2012-04-20, 00:31:05,VALID,1008.94,VALID,0,VALID,104,VALID,0,VALID,23.1892,VALID,187,VALID,0,
2012-04-20, 00:32:05,VALID,1008.93,VALID,0,VALID,104,VALID,0.112112,VALID,23.1874,VALID,187,VALID,0,
2012-04-20, 00:33:05,VALID,1008.91,VALID,0,VALID,104,VALID,0,VALID,23.1874,VALID,187,VALID,0,
2012-04-20, 00:34:05,VALID,1008.91,VALID,0,VALID,104,VALID,0,VALID,23.1874,VALID,187,VALID,0.151953,
2012-04-20, 00:35:05,VALID,1008.92,VALID,0,VALID,104,VALID,0.112112,VALID,23.1662,VALID,187,VALID,0.216797,
2012-04-20, 00:36:05,VALID,1008.88,VALID,0,VALID,104,VALID,0,VALID,23.1857,VALID,187,VALID,0,
2012-04-20, 00:37:05,VALID,1008.88,VALID,0,VALID,104,VALID,0.112112,VALID,23.2264,VALID,187,VALID,0.251172,
2012-04-20, 00:38:05,VALID,1008.85,VALID,0,VALID,104,VALID,0,VALID,23.2264,VALID,187,VALID,0.114453,
2012-04-20, 00:39:05,VALID,1008.84,VALID,0,VALID,104,VALID,0,VALID,23.2264,VALID,187,VALID,0.178516,
2012-04-20, 00:40:05,VALID,1008.87,VALID,0,VALID,104,VALID,0,VALID,23.2264,VALID,187,VALID,0,
2012-04-20, 00:41:05,VALID,1008.85,VALID,0,VALID,104,VALID,0,VALID,23.2051,VALID,187,VALID,0,
2012-04-20, 00:42:05,VALID,1008.84,VALID,0,VALID,104,VALID,0,VALID,23.2051,VALID,187,VALID,0,
2012-04-20, 00:43:05,VALID,1008.85,VALID,0,VALID,104,VALID,0,VALID,23.2459,VALID,187,VALID,0,
2012-04-20, 00:44:05,VALID,1008.82,VALID,0,VALID,104,VALID,0,VALID,23.2441,VALID,187,VALID,0.157422,
2012-04-20, 00:45:05,VALID,1008.81,VALID,0,VALID,104,VALID,0,VALID,23.2636,VALID,187,VALID,0.467578,
2012-04-20, 00:46:05,VALID,1008.81,VALID,0,VALID,104,VALID,0,VALID,23.2831,VALID,187,VALID,0.423828,
2012-04-20, 00:47:05,VALID,1008.83,VALID,0,VALID,104,VALID,0,VALID,23.3043,VALID,187,VALID,0.702344,
2012-04-20, 00:48:05,VALID,1008.81,VALID,0,VALID,104,VALID,0,VALID,23.3043,VALID,187,VALID,0.595312,
2012-04-20, 00:49:05,VALID,1008.84,VALID,0,VALID,104,VALID,0,VALID,23.3043,VALID,187,VALID,0.309375,
2012-04-20, 00:50:05,VALID,1008.86,VALID,0,VALID,104,VALID,0,VALID,23.3043,VALID,187,VALID,0.140625,
2012-04-20, 00:51:05,VALID,1008.87,VALID,0,VALID,104,VALID,0,VALID,23.3238,VALID,187,VALID,0.127734,
2012-04-20, 00:52:05,VALID,1008.89,VALID,0,VALID,104,VALID,0,VALID,23.3238,VALID,187,VALID,0.317187,
2012-04-20, 00:53:05,VALID,1008.91,VALID,0,VALID,104,VALID,0,VALID,23.3043,VALID,187,VALID,0.426172,
2012-04-20, 00:54:05,VALID,1008.93,VALID,0,VALID,104,VALID,0,VALID,23.3043,VALID,152,VALID,0.728516,
2012-04-20, 00:55:05,VALID,1008.93,VALID,0,VALID,104,VALID,0,VALID,23.3238,VALID,138,VALID,0.844922,
2012-04-20, 00:56:05,VALID,1008.97,VALID,0,VALID,104,VALID,0,VALID,23.2831,VALID,124,VALID,0.985156,
2012-04-20, 00:57:05,VALID,1008.98,VALID,0,VALID,104,VALID,0,VALID,23.3238,VALID,117,VALID,0.888672,
2012-04-20, 00:58:05,VALID,1008.99,VALID,0,VALID,104,VALID,0,VALID,23.322,VALID,113,VALID,0.8875,
2012-04-20, 00:59:05,VALID,1008.97,VALID,0,VALID,104,VALID,0,VALID,23.3238,VALID,113,VALID,0.733594,
2012-04-20, 01:00:05,VALID,1008.99,VALID,0,VALID,104,VALID,0,VALID,23.3238,VALID,114,VALID,0.675781,
2012-04-20, 01:01:05,VALID,1008.99,VALID,0,VALID,104,VALID,0,VALID,23.3238,VALID,131,VALID,1.18086,
2012-04-20, 01:02:05,VALID,1008.97,VALID,0,VALID,104,VALID,0,VALID,23.3043,VALID,141,VALID,0.331641,
2012-04-20, 01:03:05,VALID,1008.99,VALID,0,VALID,104,VALID,0,VALID,23.3238,VALID,141,VALID,0.251953,
2012-04-20, 01:04:05,VALID,1008.97,VALID,0,VALID,104,VALID,0,VALID,23.3043,VALID,97,VALID,0.780469,
2012-04-20, 01:05:05,VALID,1008.95,VALID,0,VALID,104,VALID,0,VALID,23.3043,VALID,99,VALID,0.616797,
2012-04-20, 01:06:05,VALID,1008.97,VALID,0,VALID,104,VALID,0,VALID,23.3043,VALID,103,VALID,0.573438,
2012-04-20, 01:07:05,VALID,1008.99,VALID,0,VALID,104,VALID,0,VALID,23.2848,VALID,105,VALID,0.630859,
2012-04-20, 01:08:05,VALID,1009.01,VALID,0,VALID,104,VALID,0,VALID,23.3043,VALID,105,VALID,0.5875,
2012-04-20, 01:09:05,VALID,1009.03,VALID,0,VALID,104,VALID,0,VALID,23.2848,VALID,105,VALID,0.494141,
2012-04-20, 01:10:05,VALID,1009.05,VALID,0,VALID,104,VALID,0,VALID,23.3043,VALID,105,VALID,0.3875,
2012-04-20, 01:11:05,VALID,1009.06,VALID,0,VALID,104,VALID,0,VALID,23.3043,VALID,105,VALID,0.396484,
2012-04-20, 01:12:05,VALID,1009.06,VALID,0,VALID,104,VALID,0,VALID,23.3043,VALID,105,VALID,0.523828,
2012-04-20, 01:13:05,VALID,1009.05,VALID,0,VALID,104,VALID,0,VALID,23.3238,VALID,105,VALID,0.767187,
2012-04-20, 01:14:05,VALID,1009.05,VALID,0,VALID,104,VALID,0,VALID,23.3238,VALID,104,VALID,0.433203,
2012-04-20, 01:15:05,VALID,1009.06,VALID,0,VALID,104,VALID,0,VALID,23.3433,VALID,104,VALID,0.653516,
2012-04-20, 01:16:05,VALID,1009.05,VALID,0,VALID,104,VALID,0,VALID,23.3628,VALID,84,VALID,0.214062,
2012-04-20, 01:17:05,VALID,1009.03,VALID,0,VALID,104,VALID,0,VALID,23.3433,VALID,119,VALID,1.025,
2012-04-20, 01:18:05,VALID,1009.02,VALID,0,VALID,104,VALID,0,VALID,23.3238,VALID,120,VALID,0.483984,
2012-04-20, 01:19:05,VALID,1009.03,VALID,0,VALID,104,VALID,0,VALID,23.3238,VALID,120,VALID,0.550781,
2012-04-20, 01:20:05,VALID,1009,VALID,0,VALID,104,VALID,0,VALID,23.3238,VALID,117,VALID,0.671094,
2012-04-20, 01:21:05,VALID,1008.99,VALID,0,VALID,104,VALID,0,VALID,23.3433,VALID,109,VALID,0.499609,
2012-04-20, 01:22:05,VALID,1008.98,VALID,0,VALID,104,VALID,0,VALID,23.3645,VALID,98,VALID,0.251172,
2012-04-20, 01:23:05,VALID,1009.02,VALID,0,VALID,104,VALID,0,VALID,23.3628,VALID,98,VALID,0.14375,
2012-04-20, 01:24:05,VALID,1009.01,VALID,0,VALID,104,VALID,0,VALID,23.3628,VALID,98,VALID,0.419922,
2012-04-20, 01:25:05,VALID,1008.99,VALID,0,VALID,104,VALID,0,VALID,23.3823,VALID,98,VALID,0.383203,
2012-04-20, 01:26:05,VALID,1008.98,VALID,0,VALID,104,VALID,0,VALID,23.3823,VALID,98,VALID,0.311328,
2012-04-20, 01:27:05,VALID,1008.96,VALID,0,VALID,104,VALID,0,VALID,23.3628,VALID,119,VALID,0.941797,
2012-04-20, 01:28:05,VALID,1008.94,VALID,0,VALID,104,VALID,0,VALID,23.3415,VALID,119,VALID,0.689844,
2012-04-20, 01:29:05,VALID,1008.9,VALID,0,VALID,104,VALID,0,VALID,23.3628,VALID,119,VALID,0.9125,
2012-04-20, 01:30:05,VALID,1008.9,VALID,0,VALID,104,VALID,0,VALID,23.322,VALID,118,VALID,0.776563,
2012-04-20, 01:31:05,VALID,1008.85,VALID,0,VALID,104,VALID,0,VALID,23.3238,VALID,92,VALID,0.614062,
2012-04-20, 01:32:05,VALID,1008.82,VALID,0,VALID,104,VALID,0,VALID,23.3433,VALID,107,VALID,0.428906,
2012-04-20, 01:33:05,VALID,1008.77,VALID,0,VALID,104,VALID,0,VALID,23.3433,VALID,107,VALID,0.417578,
2012-04-20, 01:34:05,VALID,1008.73,VALID,0,VALID,104,VALID,0,VALID,23.3433,VALID,107,VALID,0.467969,
2012-04-20, 01:35:05,VALID,1008.7,VALID,0,VALID,104,VALID,0,VALID,23.3433,VALID,107,VALID,0.233594,
2012-04-20, 01:36:05,VALID,1008.69,VALID,0,VALID,104,VALID,0,VALID,23.3415,VALID,107,VALID,0.167187,
2012-04-20, 01:37:05,VALID,1008.66,VALID,0,VALID,104,VALID,0,VALID,23.361,VALID,69,VALID,0.35625,
2012-04-20, 01:38:05,VALID,1008.63,VALID,0,VALID,104,VALID,0,VALID,23.3823,VALID,69,VALID,0.178516,
2012-04-20, 01:39:05,VALID,1008.64,VALID,0,VALID,104,VALID,0,VALID,23.3823,VALID,69,VALID,0.421875,
2012-04-20, 01:40:05,VALID,1008.62,VALID,0,VALID,104,VALID,0,VALID,23.3823,VALID,69,VALID,0.316797,
2012-04-20, 01:41:05,VALID,1008.61,VALID,0,VALID,104,VALID,0,VALID,23.3823,VALID,69,VALID,0.225781,
2012-04-20, 01:42:05,VALID,1008.62,VALID,0,VALID,104,VALID,0,VALID,23.3823,VALID,69,VALID,0.516797,
2012-04-20, 01:43:05,VALID,1008.6,VALID,0,VALID,104,VALID,0,VALID,23.4017,VALID,69,VALID,0.498437,
2012-04-20, 01:44:05,VALID,1008.58,VALID,0,VALID,104,VALID,0,VALID,23.4212,VALID,69,VALID,0.248437,
2012-04-20, 01:45:05,VALID,1008.6,VALID,0,VALID,104,VALID,0,VALID,23.4212,VALID,103,VALID,0.664453,
2012-04-20, 01:46:05,VALID,1008.58,VALID,0,VALID,104,VALID,0,VALID,23.4212,VALID,114,VALID,0.368359,
2012-04-20, 01:47:05,VALID,1008.58,VALID,0,VALID,104,VALID,0,VALID,23.4212,VALID,114,VALID,0.24375,
2012-04-20, 01:48:05,VALID,1008.58,VALID,0,VALID,104,VALID,0,VALID,23.3805,VALID,115,VALID,0.511719,
2012-04-20, 01:49:05,VALID,1008.61,VALID,0,VALID,104,VALID,0,VALID,23.4017,VALID,127,VALID,0.530078,
2012-04-20, 01:50:05,VALID,1008.61,VALID,0,VALID,104,VALID,0,VALID,23.4035,VALID,127,VALID,0.540625,
2012-04-20, 01:51:05,VALID,1008.59,VALID,0,VALID,104,VALID,0,VALID,23.4,VALID,127,VALID,0.325781,
2012-04-20, 01:52:05,VALID,1008.62,VALID,0.5,VALID,104,VALID,0.112112,VALID,23.4212,VALID,127,VALID,0.443359,
2012-04-20, 01:53:05,VALID,1008.6,VALID,0,VALID,104,VALID,0.112112,VALID,23.4212,VALID,127,VALID,0.392188,
2012-04-20, 01:54:05,VALID,1008.62,VALID,0,VALID,104,VALID,0,VALID,23.4017,VALID,127,VALID,0.333203,
2012-04-20, 01:55:05,VALID,1008.65,VALID,0,VALID,104,VALID,0,VALID,23.4425,VALID,126,VALID,0.498047,
2012-04-20, 01:56:05,VALID,1008.67,VALID,0,VALID,104,VALID,0,VALID,23.3823,VALID,95,VALID,0.58125,
2012-04-20, 01:57:05,VALID,1008.69,VALID,0,VALID,104,VALID,0,VALID,23.4017,VALID,82,VALID,1.07187,
2012-04-20, 01:58:05,VALID,1008.72,VALID,0,VALID,104,VALID,0,VALID,23.4035,VALID,89,VALID,1.35234,
2012-04-20, 01:59:05,VALID,1008.73,VALID,0,VALID,104,VALID,0,VALID,23.4017,VALID,90,VALID,0.90625,
2012-04-20, 02:00:05,VALID,1008.75,VALID,0,VALID,104,VALID,0,VALID,23.4017,VALID,107,VALID,1.15586,
2012-04-20, 02:01:05,VALID,1008.74,VALID,0,VALID,104,VALID,0,VALID,23.3823,VALID,76,VALID,1.11406,
2012-04-20, 02:02:05,VALID,1008.71,VALID,0,VALID,104,VALID,0,VALID,23.423,VALID,63,VALID,0.583594,
2012-04-20, 02:03:05,VALID,1008.72,VALID,0,VALID,104,VALID,0,VALID,23.3823,VALID,76,VALID,0.788672,
2012-04-20, 02:04:04,VALID,1008.67,VALID,0,VALID,104,VALID,0,VALID,23.4035,VALID,76,VALID,0.658203,
2012-04-20, 02:05:04,VALID,1008.63,VALID,0,VALID,104,VALID,0,VALID,23.4017,VALID,76,VALID,0.462109,
2012-04-20, 02:06:04,VALID,1008.59,VALID,0,VALID,104,VALID,0,VALID,23.423,VALID,76,VALID,0.0964844,
2012-04-20, 02:07:04,VALID,1008.59,VALID,0,VALID,104,VALID,0,VALID,23.4017,VALID,77,VALID,0.575391,
2012-04-20, 02:08:04,VALID,1008.56,VALID,0,VALID,104,VALID,0,VALID,23.3823,VALID,78,VALID,0.202344,
2012-04-20, 02:09:04,VALID,1008.54,VALID,0,VALID,104,VALID,0,VALID,23.3823,VALID,78,VALID,0.688281,
2012-04-20, 02:10:04,VALID,1008.53,VALID,0,VALID,104,VALID,0,VALID,23.4017,VALID,78,VALID,0.629297,
2012-04-20, 02:11:04,VALID,1008.56,VALID,0,VALID,104,VALID,0,VALID,23.423,VALID,78,VALID,0.379687,
2012-04-20, 02:12:04,VALID,1008.56,VALID,0,VALID,104,VALID,0,VALID,23.4017,VALID,94,VALID,0.785156,
2012-04-20, 02:13:04,VALID,1008.57,VALID,0,VALID,104,VALID,0,VALID,23.4212,VALID,102,VALID,0.777734,
2012-04-20, 02:14:04,VALID,1008.58,VALID,0,VALID,104,VALID,0,VALID,23.4035,VALID,97,VALID,1.34883,
2012-04-20, 02:15:04,VALID,1008.56,VALID,0,VALID,104,VALID,0,VALID,23.3823,VALID,94,VALID,1.08711,
2012-04-20, 02:16:04,VALID,1008.57,VALID,0,VALID,104,VALID,0,VALID,23.3823,VALID,96,VALID,0.885156,
2012-04-20, 02:17:04,VALID,1008.56,VALID,0,VALID,104,VALID,0,VALID,23.361,VALID,91,VALID,1.27891,
2012-04-20, 02:18:04,VALID,1008.53,VALID,0,VALID,104,VALID,0,VALID,23.3628,VALID,97,VALID,1.15,
2012-04-20, 02:19:04,VALID,1008.54,VALID,0,VALID,104,VALID,0,VALID,23.3628,VALID,98,VALID,1.12188,
2012-04-20, 02:20:04,VALID,1008.49,VALID,0,VALID,104,VALID,0,VALID,23.3433,VALID,94,VALID,0.355078,
2012-04-20, 02:21:04,VALID,1008.44,VALID,0,VALID,104,VALID,0,VALID,23.384,VALID,129,VALID,0.584766,
2012-04-20, 02:22:04,VALID,1008.42,VALID,0,VALID,104,VALID,0,VALID,23.3823,VALID,138,VALID,0.235156,
2012-04-20, 02:23:04,VALID,1008.41,VALID,0,VALID,104,VALID,0,VALID,23.3628,VALID,138,VALID,0.415625,
2012-04-20, 02:24:04,VALID,1008.37,VALID,0,VALID,104,VALID,0,VALID,23.384,VALID,138,VALID,0.567578,
2012-04-20, 02:25:04,VALID,1008.36,VALID,0,VALID,104,VALID,0,VALID,23.3433,VALID,138,VALID,0.453125,
2012-04-20, 02:26:04,VALID,1008.34,VALID,0,VALID,104,VALID,0,VALID,23.3628,VALID,138,VALID,0.437891,
2012-04-20, 02:27:04,VALID,1008.37,VALID,0,VALID,104,VALID,0,VALID,23.3628,VALID,138,VALID,0.561719,
2012-04-20, 02:28:04,VALID,1008.36,VALID,0,VALID,104,VALID,0,VALID,23.3433,VALID,139,VALID,0.576563,
2012-04-20, 02:29:04,VALID,1008.37,VALID,0,VALID,104,VALID,0,VALID,23.3433,VALID,139,VALID,0.506641,
2012-04-20, 02:30:04,VALID,1008.35,VALID,0,VALID,104,VALID,0,VALID,23.3628,VALID,127,VALID,0.712891,
2012-04-20, 02:31:04,VALID,1008.33,VALID,0,VALID,104,VALID,0,VALID,23.3823,VALID,93,VALID,0.762891,
2012-04-20, 02:32:04,VALID,1008.33,VALID,0,VALID,104,VALID,0,VALID,23.3823,VALID,103,VALID,0.780078,
2012-04-20, 02:33:04,VALID,1008.33,VALID,0,VALID,104,VALID,0,VALID,23.3823,VALID,103,VALID,0.739062,
2012-04-20, 02:34:04,VALID,1008.31,VALID,0,VALID,104,VALID,0,VALID,23.423,VALID,88,VALID,1.10195,
2012-04-20, 02:35:04,VALID,1008.28,VALID,0,VALID,104,VALID,0,VALID,23.3823,VALID,92,VALID,0.668359,
2012-04-20, 02:36:04,VALID,1008.31,VALID,0,VALID,104,VALID,0,VALID,23.4212,VALID,81,VALID,0.38125,
2012-04-20, 02:37:04,VALID,1008.27,VALID,0,VALID,104,VALID,0,VALID,23.4017,VALID,54,VALID,0.692187,
2012-04-20, 02:38:04,VALID,1008.24,VALID,0,VALID,104,VALID,0,VALID,23.4017,VALID,50,VALID,0.819141,
2012-04-20, 02:39:04,VALID,1008.23,VALID,0,VALID,104,VALID,0,VALID,23.4017,VALID,42,VALID,0.873438,
2012-04-20, 02:40:04,VALID,1008.2,VALID,0,VALID,104,VALID,0,VALID,23.384,VALID,42,VALID,0.802344,
2012-04-20, 02:41:04,VALID,1008.18,VALID,0,VALID,104,VALID,0,VALID,23.3628,VALID,41,VALID,0.725391,
2012-04-20, 02:42:04,VALID,1008.18,VALID,0,VALID,104,VALID,0,VALID,23.3628,VALID,80,VALID,0.455469,
2012-04-20, 02:43:04,VALID,1008.18,VALID,0,VALID,104,VALID,0,VALID,23.3628,VALID,80,VALID,0.321484,
2012-04-20, 02:44:04,VALID,1008.17,VALID,0,VALID,104,VALID,0,VALID,23.3628,VALID,75,VALID,0.397656,
2012-04-20, 02:45:04,VALID,1008.16,VALID,0,VALID,104,VALID,0,VALID,23.3433,VALID,35,VALID,0.719531,
2012-04-20, 02:46:04,VALID,1008.17,VALID,0,VALID,104,VALID,0,VALID,23.3433,VALID,34,VALID,0.522656,
2012-04-20, 02:47:04,VALID,1008.16,VALID,0,VALID,104,VALID,0,VALID,23.3238,VALID,17,VALID,0.396484,
2012-04-20, 02:48:04,VALID,1008.16,VALID,0,VALID,104,VALID,0,VALID,23.3238,VALID,17,VALID,0.525781,
2012-04-20, 02:49:04,VALID,1008.17,VALID,0,VALID,104,VALID,0,VALID,23.3043,VALID,17,VALID,0.555078,
2012-04-20, 02:50:04,VALID,1008.17,VALID,0,VALID,104,VALID,0,VALID,23.3043,VALID,17,VALID,0.282031,
2012-04-20, 02:51:04,VALID,1008.17,VALID,0,VALID,104,VALID,0,VALID,23.3043,VALID,31,VALID,0.667578,
2012-04-20, 02:52:04,VALID,1008.16,VALID,0,VALID,104,VALID,0,VALID,23.2848,VALID,38,VALID,0.419531,
2012-04-20, 02:53:04,VALID,1008.16,VALID,0,VALID,104,VALID,0,VALID,23.3043,VALID,38,VALID,0.630859,
2012-04-20, 02:54:04,VALID,1008.15,VALID,0,VALID,104,VALID,0,VALID,23.2848,VALID,58,VALID,0.669922,
2012-04-20, 02:55:04,VALID,1008.11,VALID,0,VALID,104,VALID,0,VALID,23.2848,VALID,43,VALID,0.414844,
2012-04-20, 02:56:04,VALID,1008.11,VALID,0,VALID,104,VALID,0,VALID,23.2848,VALID,43,VALID,0.317578,
2012-04-20, 02:57:04,VALID,1008.12,VALID,0,VALID,104,VALID,0,VALID,23.2848,VALID,43,VALID,0.188281,
2012-04-20, 02:58:04,VALID,1008.11,VALID,0,VALID,104,VALID,0,VALID,23.2848,VALID,43,VALID,0.139844,
2012-04-20, 02:59:04,VALID,1008.1,VALID,0,VALID,104,VALID,0,VALID,23.2654,VALID,43,VALID,0.26875,
2012-04-20, 03:00:04,VALID,1008.09,VALID,0,VALID,104,VALID,0,VALID,23.2654,VALID,43,VALID,0,
2012-04-20, 03:01:04,VALID,1008.06,VALID,0,VALID,104,VALID,0,VALID,23.2654,VALID,43,VALID,0.0585938,
2012-04-20, 03:02:04,VALID,1008.06,VALID,0,VALID,104,VALID,0,VALID,23.2459,VALID,43,VALID,0.0996094,
2012-04-20, 03:03:04,VALID,1008.08,VALID,0,VALID,104,VALID,0,VALID,23.2264,VALID,43,VALID,0.329297,
2012-04-20, 03:04:04,VALID,1008.08,VALID,0,VALID,104,VALID,0,VALID,23.2264,VALID,43,VALID,0.25,
2012-04-20, 03:05:04,VALID,1008.11,VALID,0,VALID,104,VALID,0,VALID,23.2476,VALID,43,VALID,0.300781,
2012-04-20, 03:06:04,VALID,1008.1,VALID,0,VALID,104,VALID,0,VALID,23.2264,VALID,43,VALID,0.413672,
2012-04-20, 03:07:04,VALID,1008.1,VALID,0,VALID,104,VALID,0,VALID,23.2264,VALID,43,VALID,0.468359,
2012-04-20, 03:08:04,VALID,1008.1,VALID,0,VALID,104,VALID,0,VALID,23.2476,VALID,52,VALID,0.619922,
2012-04-20, 03:09:04,VALID,1008.1,VALID,0,VALID,104,VALID,0,VALID,23.2264,VALID,52,VALID,0.534375,
2012-04-20, 03:10:04,VALID,1008.11,VALID,0,VALID,104,VALID,0,VALID,23.2264,VALID,52,VALID,0.429297,
2012-04-20, 03:11:04,VALID,1008.15,VALID,0,VALID,104,VALID,0,VALID,23.2246,VALID,52,VALID,0.50625,
2012-04-20, 03:12:04,VALID,1008.16,VALID,0,VALID,104,VALID,0,VALID,23.2654,VALID,65,VALID,0.626172,
2012-04-20, 03:13:04,VALID,1008.18,VALID,0,VALID,104,VALID,0,VALID,23.2654,VALID,84,VALID,1.21641,
2012-04-20, 03:14:04,VALID,1008.19,VALID,0,VALID,104,VALID,0,VALID,23.2654,VALID,92,VALID,0.845703,
2012-04-20, 03:15:04,VALID,1008.21,VALID,0,VALID,104,VALID,0,VALID,23.2654,VALID,107,VALID,0.810547,
2012-04-20, 03:16:04,VALID,1008.19,VALID,0,VALID,104,VALID,0,VALID,23.2654,VALID,129,VALID,0.795703,
2012-04-20, 03:17:04,VALID,1008.2,VALID,0,VALID,104,VALID,0,VALID,23.2654,VALID,141,VALID,0.881641,
2012-04-20, 03:18:04,VALID,1008.21,VALID,0,VALID,104,VALID,0,VALID,23.2654,VALID,141,VALID,0.36875,
2012-04-20, 03:19:04,VALID,1008.18,VALID,0,VALID,104,VALID,0,VALID,23.2848,VALID,149,VALID,0.474609,
2012-04-20, 03:20:04,VALID,1008.21,VALID,0,VALID,104,VALID,0,VALID,23.2654,VALID,133,VALID,0.692969,
2012-04-20, 03:21:04,VALID,1008.21,VALID,0,VALID,104,VALID,0,VALID,23.2459,VALID,132,VALID,0.265234,
2012-04-20, 03:22:04,VALID,1008.19,VALID,0,VALID,104,VALID,0,VALID,23.2459,VALID,132,VALID,0,
2012-04-20, 03:23:04,VALID,1008.21,VALID,0,VALID,104,VALID,0,VALID,23.2459,VALID,132,VALID,0.279297,
2012-04-20, 03:24:04,VALID,1008.2,VALID,0,VALID,104,VALID,0,VALID,23.2264,VALID,84,VALID,0.582812,
2012-04-20, 03:25:04,VALID,1008.21,VALID,0,VALID,104,VALID,0,VALID,23.2671,VALID,83,VALID,0.157031,
2012-04-20, 03:26:04,VALID,1008.19,VALID,0,VALID,104,VALID,0,VALID,23.2246,VALID,88,VALID,0.646875,
2012-04-20, 03:27:04,VALID,1008.11,VALID,0,VALID,104,VALID,0,VALID,23.2459,VALID,93,VALID,1.14883,
2012-04-20, 03:28:04,VALID,1008.11,VALID,0,VALID,104,VALID,0,VALID,23.2459,VALID,89,VALID,0.728906,
2012-04-20, 03:29:04,VALID,1008.1,VALID,0,VALID,104,VALID,0,VALID,23.2264,VALID,67,VALID,0.979297,
2012-04-20, 03:30:04,VALID,1008.07,VALID,0,VALID,104,VALID,0,VALID,23.2246,VALID,66,VALID,0.485156,
2012-04-20, 03:31:04,VALID,1008.07,VALID,0,VALID,104,VALID,0,VALID,23.2459,VALID,66,VALID,0.567187,
2012-04-20, 03:32:04,VALID,1008.04,VALID,0,VALID,104,VALID,0,VALID,23.2264,VALID,44,VALID,0.565625,
2012-04-20, 03:33:04,VALID,1008.03,VALID,0,VALID,104,VALID,0,VALID,23.2264,VALID,42,VALID,0.528906,
2012-04-20, 03:34:04,VALID,1008,VALID,0,VALID,104,VALID,0,VALID,23.2264,VALID,42,VALID,0.207422,
2012-04-20, 03:35:04,VALID,1008,VALID,0,VALID,104,VALID,0,VALID,23.2264,VALID,42,VALID,0.35625,
2012-04-20, 03:36:04,VALID,1008.02,VALID,0,VALID,104,VALID,0,VALID,23.2069,VALID,42,VALID,0.253906,
2012-04-20, 03:37:04,VALID,1008.01,VALID,0,VALID,104,VALID,0,VALID,23.2069,VALID,63,VALID,0.669141,
2012-04-20, 03:38:04,VALID,1008.04,VALID,0,VALID,104,VALID,0,VALID,23.2069,VALID,81,VALID,0.303516,
2012-04-20, 03:39:04,VALID,1008.03,VALID,0,VALID,104,VALID,0,VALID,23.2264,VALID,82,VALID,0.864453,
2012-04-20, 03:40:04,VALID,1008.04,VALID,0,VALID,104,VALID,0,VALID,23.2069,VALID,86,VALID,0.399609,
2012-04-20, 03:41:04,VALID,1008.04,VALID,0,VALID,104,VALID,0,VALID,23.2264,VALID,85,VALID,0.721094,
2012-04-20, 03:42:04,VALID,1008.03,VALID,0,VALID,104,VALID,0,VALID,23.2264,VALID,84,VALID,0.551562,
2012-04-20, 03:43:04,VALID,1008.02,VALID,0,VALID,104,VALID,0.112112,VALID,23.2051,VALID,84,VALID,0.271094,
2012-04-20, 03:44:04,VALID,1008.03,VALID,0,VALID,104,VALID,0.112112,VALID,23.2264,VALID,84,VALID,0.411719,
2012-04-20, 03:45:04,VALID,1008,VALID,0,VALID,104,VALID,0,VALID,23.2069,VALID,84,VALID,0.110547,
2012-04-20, 03:46:04,VALID,1008.02,VALID,0,VALID,104,VALID,0,VALID,23.2069,VALID,79,VALID,0.5375,
2012-04-20, 03:47:04,VALID,1008.04,VALID,0,VALID,104,VALID,0,VALID,23.1874,VALID,57,VALID,0.394141,
2012-04-20, 03:48:04,VALID,1008.08,VALID,0,VALID,104,VALID,0,VALID,23.2282,VALID,57,VALID,0.147656,
2012-04-20, 03:49:04,VALID,1008.08,VALID,0,VALID,104,VALID,0,VALID,23.1874,VALID,52,VALID,0.413672,
2012-04-20, 03:50:04,VALID,1008.12,VALID,0,VALID,104,VALID,0,VALID,23.1679,VALID,53,VALID,0.49375,
2012-04-20, 03:51:04,VALID,1008.14,VALID,0,VALID,104,VALID,0,VALID,23.1892,VALID,53,VALID,0.269531,
2012-04-20, 03:52:04,VALID,1008.13,VALID,0,VALID,104,VALID,0,VALID,23.1679,VALID,53,VALID,0.508984,
2012-04-20, 03:53:04,VALID,1008.13,VALID,0,VALID,104,VALID,0.112112,VALID,23.1679,VALID,70,VALID,0.61875,
2012-04-20, 03:54:04,VALID,1008.15,VALID,0,VALID,104,VALID,0,VALID,23.1874,VALID,70,VALID,0.169141,
2012-04-20, 03:55:04,VALID,1008.13,VALID,0,VALID,104,VALID,0.112112,VALID,23.1679,VALID,70,VALID,0.180469,